Phoenix Deer Valley, AZ

12:39 PM MST on August 18, 2017 (GMT -0700)
Phoenix-Deer Valley Municipal

Weather History for KDVT - January, 2013

Change the Weather History Date:

Friday, January 4, 2013

  Actual Average Record
Temperature  
Mean Temperature 47 °F -  
Max Temperature 57 °F 62 °F 81 °F (2012)
Min Temperature 37 °F 42 °F 34 °F (2011)
Degree Days  
Heating Degree Days 18    
Moisture  
Dew Point 16 °F    
Average Humidity 30    
Maximum Humidity 42    
Minimum Humidity 18    
Precipitation  
Precipitation 0.00 in - - ()
Sea Level Pressure  
Sea Level Pressure 30.22 in    
Wind  
Wind Speed 4 mph (NE)    
Max Wind Speed 13 mph    
Max Gust Speed -    
Visibility 10 miles    
Events      
Averages and records for this station are not official NWS values.
T = Trace of Precipitation, MM = Missing Value Source: NWS Daily Summary

Daily Weather History Graph

Daily Weather History Graph

Search for Another Location

Airport or City:

Trip Planner

Search our weather history database for the weather conditions in past years. The results will help you decide how hot, cold, wet, or windy it might be!

Date:

Astronomy

Jan. 04, 2013 Rise Set
Actual Time 7:33 AM MST 5:33 PM MST
Civil Twilight 7:06 AM MST 6:01 PM MST
Nautical Twilight 6:35 AM MST 6:32 PM MST
Astronomical Twilight 6:04 AM MST 7:02 PM MST
Moon No Moon Rise 11:40 AM MST (1/4)
Length of Visible Light 10h 54m
Length of Day
10h 00m
Waning Gibbous, 54% of the Moon is Illuminated
Jan 4
Waning Gibbous
Jan 4
Last Quarter
Jan 11
New
Jan 18
First Quarter
Jan 26
Full

Hourly Weather History & Observations

Time (MST) Temp. Windchill Dew Point Humidity Pressure Visibility Wind Dir Wind Speed Gust Speed Precip Events Conditions
12:53 AM 43.0 °F 39.5 °F 12.9 °F 30% 30.19 in 10.0 mi NNE 5.8 mph - N/A   Clear
1:53 AM 41.0 °F - 15.1 °F 35% 30.20 in 10.0 mi Calm Calm - N/A   Clear
2:53 AM 39.0 °F - 15.1 °F 38% 30.21 in 10.0 mi Calm Calm - N/A   Clear
3:53 AM 39.0 °F 34.0 °F 15.1 °F 38% 30.21 in 10.0 mi NE 6.9 mph - N/A   Clear
4:53 AM 44.1 °F - 14.0 °F 30% 30.22 in 10.0 mi Calm Calm - N/A   Clear
5:53 AM 39.0 °F 35.7 °F 15.1 °F 38% 30.23 in 10.0 mi NE 4.6 mph - N/A   Clear
6:53 AM 37.9 °F - 15.1 °F 39% 30.26 in 10.0 mi Calm Calm - N/A   Clear
7:53 AM 37.0 °F - 16.0 °F 42% 30.27 in 10.0 mi Calm Calm - N/A   Clear
8:53 AM 46.9 °F - 12.0 °F 24% 30.27 in 10.0 mi ENE 8.1 mph - N/A   Clear
9:53 AM 50.0 °F - 12.9 °F 23% 30.28 in 10.0 mi Calm Calm - N/A   Clear
10:53 AM 53.1 °F - 12.9 °F 20% 30.27 in 10.0 mi East 9.2 mph - N/A   Clear
11:53 AM 54.0 °F - 15.1 °F 22% 30.25 in 10.0 mi ESE 5.8 mph - N/A   Clear
12:53 PM 54.0 °F - 16.0 °F 22% 30.21 in 10.0 mi SSE 8.1 mph - N/A   Clear
1:53 PM 55.0 °F - 16.0 °F 22% 30.19 in 10.0 mi Calm Calm - N/A   Clear
2:53 PM 55.9 °F - 14.0 °F 19% 30.19 in 10.0 mi Calm Calm - N/A   Clear
3:53 PM 57.0 °F - 14.0 °F 18% 30.19 in 10.0 mi Calm Calm - N/A   Clear
4:53 PM 55.9 °F - 14.0 °F 19% 30.18 in 10.0 mi Calm Calm - N/A   Clear
5:53 PM 54.0 °F - 16.0 °F 22% 30.19 in 10.0 mi Calm Calm - N/A   Clear
6:53 PM 48.9 °F - 19.0 °F 31% 30.21 in 10.0 mi Calm Calm - N/A   Clear
7:53 PM 45.0 °F 43.5 °F 19.9 °F 37% 30.23 in 10.0 mi NNE 3.5 mph - N/A   Clear
8:53 PM 46.0 °F 41.4 °F 19.9 °F 35% 30.23 in 10.0 mi NNE 9.2 mph - N/A   Clear
9:53 PM 45.0 °F 38.9 °F 19.0 °F 36% 30.24 in 10.0 mi NNE 12.7 mph - N/A   Clear
10:53 PM 43.0 °F 38.2 °F 19.0 °F 38% 30.24 in 10.0 mi NE 8.1 mph - N/A   Clear
11:53 PM 42.1 °F 38.4 °F 19.0 °F 40% 30.24 in 10.0 mi NNE 5.8 mph - N/A   Clear